User: anonymous   Login
Location: Lamoine Observatory
(44.4551°N, 68.3470°W)
Time: 10:02:10
(UTC-04:00)
Language:

Cosmos 1674 Rocket - Orbit

View from above orbital plane
View from above orbital plane
View from above satellite
View from above satellite

Ground track
Ground track

The orbit data is extracted from the following two-line orbital elements,

1 15945U 85069B   14305.14698874  .00000420  00000-0  48123-4 0  8078
2 15945 082.5254 310.9735 0019675 202.0304 226.3146 14.83455838578822
Epoch (UTC): 01 November 2014 03:31:39
Eccentricity: 0.0019675
inclination: 82.5254°
perigee height: 604 km
apogee height: 632 km
right ascension of ascending node: 310.9735°
argument of perigee: 202.0304°
revolutions per day: 14.83455838
mean anomaly at epoch: 226.3146°
orbit number at epoch: 57882

The dashed part of the orbit path shows where the satellite is in the earth's shadow,  

DLR